FW2442 Weather Reports


Display with metric or nautical units.
time (UTC)temp
F
wind
direction
speed
MPH
gust
MPH
rain 1hr
in
rain 24hr
in
rain mn
in
humidity
%
barometer
mb
20260903062517 67 283 20.0 31.0 0.00 0.00 0.00 81 1019.0
20260903061538 67 287 20.0 27.0 0.00 0.00 0.00 79 1019.0
20260903060518 67 293 18.0 23.0 0.00 0.00 0.00 78 1019.1
20260903055518 68 349 13.0 24.0 0.00 0.00 0.00 76 1019.0
20260903054516 68 353 6.0 10.0 0.00 0.00 0.00 77 1019.0
20260903053519 65 36 4.0 10.0 0.00 0.00 0.00 83 1019.1
20260903052520 64 347 8.0 13.0 0.00 0.00 0.00 86 1019.1
20260903051519 63 5 6.0 11.0 0.00 0.00 0.00 87 1019.0
20260903050521 63 353 9.0 13.0 0.00 0.00 0.00 87 1019.1
20260903045517 64 4 10.0 19.0 0.00 0.00 0.00 85 1019.0
20260903044521 63 346 7.0 13.0 0.00 0.00 0.00 87 1019.0
20260903043518 63 10 7.0 11.0 0.00 0.00 0.00 87 1018.9
20260903042520 62 359 8.0 12.0 0.00 0.00 0.00 88 1018.9
20260903041518 62 10 10.0 14.0 0.00 0.00 0.00 89 1018.9
20260903040520 62 14 12.0 17.0 0.00 0.00 0.00 88 1018.7
20260903035518 62 14 16.0 23.0 0.00 0.00 0.00 87 1018.6
20260903034521 62 11 16.0 23.0 0.00 0.00 0.00 87 1018.8
20260903033520 62 21 13.0 19.0 0.00 0.00 0.00 86 1018.9
20260903032521 62 4 11.0 17.0 0.00 0.00 0.00 86 1018.9
20260903031517 62 2 14.0 20.0 0.00 0.00 0.00 85 1018.9
20260903030520 63 352 14.0 22.0 0.00 0.00 0.00 83 1018.8
20260903025518 63 348 14.0 22.0 0.00 0.00 0.00 82 1018.6
20260903024520 64 6 18.0 26.0 0.00 0.00 0.00 81 1018.6
20260903023519 64 355 19.0 26.0 0.00 0.00 0.00 80 1018.7
20260903022521 65 13 18.0 27.0 0.00 0.00 0.00 79 1018.6
20260903021539 65 16 14.0 27.0 0.00 0.00 0.00 77 1018.6
20260903020521 65 347 11.0 19.0 0.00 0.00 0.00 77 1018.7
20260903015517 65 354 18.0 26.0 0.00 0.00 0.00 77 1018.7
20260903014517 65 325 14.0 26.0 0.00 0.00 0.00 77 1018.8
20260903013519 66 329 13.0 23.0 0.00 0.00 0.00 76 1018.7
20260903012520 66 4 10.0 16.0 0.00 0.00 0.00 76 1018.6
20260903011539 66 10 10.0 18.0 0.00 0.00 0.00 76 1018.5
20260903010521 66 5 17.0 26.0 0.00 0.00 0.00 77 1018.5
20260903005517 66 8 12.0 19.0 0.00 0.00 0.00 77 1018.4
20260903004521 66 360 10.0 15.0 0.00 0.00 0.00 78 1018.5
20260903003539 66 358 11.0 22.0 0.00 0.00 0.00 77 1018.4
20260903002518 66 340 14.0 20.0 0.00 0.00 0.00 77 1018.4
20260903001518 66 353 17.0 25.0 0.00 0.00 0.00 76 1018.3
20260903000540 67 344 14.0 21.0 0.00 0.00 0.00 74 1018.5
20260902235518 66 343 13.0 21.0 0.00 0.00 0.00 76 1018.4
20260902234521 66 333 11.0 31.0 0.00 0.00 0.00 76 1018.4
20260902233519 67 337 12.0 17.0 0.00 0.00 0.00 74 1018.2
20260902232521 67 353 10.0 19.0 0.00 0.00 0.00 74 1018.2
20260902231538 67 335 7.0 13.0 0.00 0.00 0.00 74 1018.2
20260902230519 68 329 8.0 14.0 0.00 0.00 0.00 72 1018.3
20260902225518 68 349 8.0 12.0 0.00 0.00 0.00 71 1018.3
20260902224519 68 356 7.0 12.0 0.00 0.00 0.00 71 1018.2
20260902223518 68 5 7.0 9.0 0.00 0.00 0.00 71 1018.3
20260902222541 68 1 8.0 11.0 0.00 0.00 0.00 71 1018.3
20260902221518 68 349 8.0 11.0 0.00 0.00 0.00 71 1018.4
20260902220538 68 347 8.0 11.0 0.00 0.00 0.00 70 1018.4
20260902215559 68 356 9.0 11.0 0.00 0.00 0.00 70 1018.3
20260902214518 68 8 9.0 13.0 0.00 0.00 0.00 70 1018.2
20260902213517 69 355 11.0 16.0 0.00 0.00 0.00 70 1018.3
20260902212521 68 360 7.0 8.0 0.00 0.00 0.00 70 1018.3
20260902211519 68 6 7.0 9.0 0.00 0.00 0.00 70 1018.3
20260902210521 69 10 8.0 10.0 0.00 0.00 0.00 70 1018.2
20260902205539 69 5 9.0 11.0 0.00 0.00 0.00 69 1018.1
20260902204521 69 11 11.0 13.0 0.00 0.00 0.00 69 1018.0
20260902203519 70 16 11.0 15.0 0.00 0.00 0.00 68 1017.9
20260902202541 70 10 12.0 15.0 0.00 0.00 0.00 67 1018.0
20260902201519 70 7 11.0 15.0 0.00 0.00 0.00 67 1018.0
20260902200521 71 6 9.0 14.0 0.00 0.00 0.00 67 1018.0
20260902195518 71 4 10.0 15.0 0.00 0.00 0.00 67 1018.0
20260902194539 71 356 10.0 18.0 0.00 0.00 0.00 68 1018.1
20260902193519 71 348 11.0 18.0 0.00 0.00 0.00 68 1018.1
20260902192521 71 349 8.0 13.0 0.00 0.00 0.00 68 1018.2
20260902191517 71 360 8.0 13.0 0.00 0.00 0.00 67 1018.1
20260902190522 72 355 9.0 12.0 0.00 0.00 0.00 67 1018.1
20260902185519 72 357 8.0 13.0 0.00 0.00 0.00 66 1018.1
20260902184537 72 357 10.0 15.0 0.00 0.00 0.00 66 1018.1
20260902183518 73 350 11.0 17.0 0.00 0.00 0.00 65 1018.0
20260902182542 74 339 9.0 12.0 0.00 0.00 0.00 65 1018.0
20260902181517 74 338 8.0 11.0 0.00 0.00 0.00 65 1017.9
20260902180522 74 347 5.0 7.0 0.00 0.00 0.00 65 1017.9
20260902175518 74 333 1.0 5.0 0.00 0.00 0.00 65 1017.8
20260902174522 74 17 5.0 6.0 0.00 0.00 0.00 65 1017.7
20260902173517 74 16 1.0 4.0 0.00 0.00 0.00 65 1017.5
20260902172518 74 15 5.0 6.0 0.00 0.00 0.00 66 1017.5
20260902171518 74 347 3.0 5.0 0.00 0.00 0.00 65 1017.4
20260902170540 74 6 2.0 5.0 0.00 0.00 0.00 65 1017.4
20260902165518 75 332 1.0 5.0 0.00 0.00 0.00 64 1017.2
20260902164523 75 355 3.0 4.0 0.00 0.00 0.00 64 1017.1
20260902163518 76 341 0.0 3.0 0.00 0.00 0.00 63 1017.0
20260902162521 77 335 1.0 5.0 0.00 0.00 0.00 61 1017.1
20260902161537 77 343 5.0 10.0 0.00 0.00 0.00 60 1017.2
20260902160517 78 302 3.0 7.0 0.00 0.00 0.00 61 1017.2
20260902155518 78 294 5.0 7.0 0.00 0.00 0.00 61 1017.3
20260902154520 78 285 7.0 11.0 0.00 0.00 0.00 59 1017.3
20260902153519 79 284 10.0 13.0 0.00 0.00 0.00 57 1017.3
20260902152521 80 288 11.0 17.0 0.00 0.00 0.00 56 1017.3
20260902151519 80 282 3.0 7.0 0.00 0.00 0.00 55 1017.3
20260902150542 79 269 7.0 11.0 0.00 0.00 0.00 56 1017.4
20260902145518 80 282 12.0 17.0 0.00 0.00 0.00 55 1017.3
20260902144518 80 313 6.0 13.0 0.00 0.00 0.00 54 1017.4
20260902143518 80 276 14.0 19.0 0.00 0.00 0.00 54 1017.5
20260902142522 80 275 6.0 11.0 0.00 0.00 0.00 56 1017.5
20260902141517 79 340 8.0 13.0 0.00 0.00 0.00 56 1017.7
20260902140539 80 297 9.0 20.0 0.00 0.00 0.00 56 1017.7
20260902135517 80 268 11.0 21.0 0.00 0.00 0.00 56 1017.8
20260902134521 80 313 10.0 26.0 0.00 0.00 0.00 57 1017.8
20260902133518 80 295 13.0 19.0 0.00 0.00 0.00 57 1017.9
20260902132542 78 283 7.0 13.0 0.00 0.00 0.00 59 1018.1
20260902131518 78 279 16.0 23.0 0.00 0.00 0.00 60 1018.2
20260902130541 79 299 6.0 16.0 0.00 0.00 0.00 59 1018.2
20260902125517 81 336 12.0 22.0 0.00 0.00 0.00 58 1018.2
20260902124521 80 182 7.0 13.0 0.00 0.00 0.00 57 1018.3
20260902123538 80 228 18.0 26.0 0.00 0.00 0.00 57 1018.4
20260902122520 79 252 13.0 22.0 0.00 0.00 0.00 60 1018.5
20260902121519 77 235 15.0 23.0 0.00 0.00 0.00 62 1018.7
20260902120541 77 242 18.0 26.0 0.00 0.00 0.00 64 1018.7
20260902115538 76 245 12.0 18.0 0.00 0.00 0.00 64 1018.7
20260902114520 76 305 5.0 9.0 0.00 0.00 0.00 65 1018.8
20260902113538 75 3 5.0 11.0 0.00 0.00 0.00 66 1018.9
20260902112516 75 318 11.0 21.0 0.00 0.00 0.00 67 1019.0
20260902111541 76 268 17.0 23.0 0.00 0.00 0.00 66 1019.1
20260902110520 76 284 21.0 30.0 0.00 0.00 0.00 65 1019.2
20260902105537 76 290 16.0 27.0 0.00 0.00 0.00 67 1019.2
20260902104521 76 275 19.0 33.0 0.00 0.00 0.00 67 1019.3
20260902103518 77 300 8.0 17.0 0.00 0.00 0.00 66 1019.3
20260902102539 76 327 6.0 9.0 0.00 0.00 0.00 65 1019.4
20260902101558 76 288 18.0 30.0 0.00 0.00 0.00 65 1019.5
20260902100522 76 301 14.0 19.0 0.00 0.00 0.00 65 1019.6
20260902095518 76 332 10.0 17.0 0.00 0.00 0.00 65 1019.6
20260902094519 77 293 14.0 30.0 0.00 0.00 0.00 64 1019.7
20260902093517 78 294 13.0 19.0 0.00 0.00 0.00 63 1019.7
20260902092522 78 226 10.0 20.0 0.00 0.00 0.00 66 1019.8
20260902091516 76 198 10.0 26.0 0.00 0.00 0.00 67 1019.9
20260902090518 76 258 10.0 17.0 0.00 0.00 0.00 69 1019.8
20260902085519 74 195 14.0 27.0 0.00 0.00 0.00 71 1019.9
20260902084521 72 233 6.0 13.0 0.00 0.00 0.00 74 1019.9
20260902083518 72 265 9.0 13.0 0.00 0.00 0.00 74 1020.1
20260902082522 71 218 7.0 12.0 0.00 0.00 0.00 75 1020.1
20260902081518 70 222 13.0 18.0 0.00 0.00 0.00 76 1020.2
20260902080521 70 179 10.0 18.0 0.00 0.00 0.00 77 1020.1
20260902075519 70 234 6.0 16.0 0.00 0.00 0.00 78 1020.0
20260902074521 70 252 11.0 17.0 0.00 0.00 0.00 77 1020.0
20260902073517 69 330 5.0 8.0 0.00 0.00 0.00 80 1019.9
20260902072518 68 89 2.0 5.0 0.00 0.00 0.00 82 1020.0
20260902071518 67 276 6.0 11.0 0.00 0.00 0.00 85 1020.0
20260902070520 65 307 7.0 12.0 0.00 0.00 0.00 86 1020.1
20260902065517 65 285 11.0 16.0 0.00 0.00 0.00 86 1020.1
20260902064520 65 273 16.0 24.0 0.00 0.00 0.00 86 1020.2
20260902063522 65 298 11.0 17.0 0.00 0.00 0.00 87 1020.0